This demonstration page uses our WeatherBlox Daily Observations layout. Learn more.

Left ArrowRight Arrow

Hourly Observations for May 4, 2018

Temp ( °F °C ) Dew Point ( °F °C ) Humidity (%) Winds ( mph kmh ) Pressure ( in mb ) Visibility ( mi km ) Precip ( " mm )
12:15 am 00:15 Clear 49 9.4 46 8 91 91 NNW 9 15 30.06 1018 10 16 N/A
12:35 am 00:35 Clear 49 9.2 46 7.9 92 92 NW 9 15 30.09 1019 10 16 N/A
12:55 am 00:55 Clear 47 8.5 46 7.6 94 94 NW 8 13 30.09 1019 10 16 N/A
1:15 am 01:15 Clear 47 8.1 46 7.6 97 97 NW 7 11 30.09 1019 10 16 N/A
1:35 am 01:35 Clear 47 8.5 46 8 97 97 NW 8 13 30.09 1019 10 16 N/A
1:55 am 01:55 Clear 47 8.5 46 7.7 95 95 NW 8 13 30.12 1020 10 16 N/A
2:15 am 02:15 Clear 46 7.9 45 7.2 95 95 W 5 7 30.12 1020 10 16 N/A
2:35 am 02:35 Clear 46 7.6 45 7 96 96 WNW 6 9 30.12 1020 10 16 N/A
2:55 am 02:55 Clear 45 7 43 6.2 95 95 WNW 5 7 30.12 1020 10 16 N/A
3:15 am 03:15 Clear 44 6.6 43 6.1 97 97 WNW 5 7 30.15 1021 10 16 N/A
3:35 am 03:35 Clear 45 7 43 6.3 95 95 WNW 8 13 30.12 1020 10 16 N/A
3:55 am 03:55 Clear 46 7.7 44 6.5 92 92 W 9 15 30.12 1020 10 16 N/A
4:15 am 04:15 Clear 46 7.7 44 6.6 93 93 W 9 15 30.12 1020 10 16 N/A
4:35 am 04:35 Clear 46 7.7 44 6.7 93 93 W 9 15 30.12 1020 10 16 N/A
4:55 am 04:55 Clear 46 7.8 44 6.7 93 93 W 9 15 30.12 1020 10 16 N/A
5:15 am 05:15 Clear 45 7.4 44 6.5 94 94 W 10 17 30.12 1020 10 16 N/A
5:35 am 05:35 Clear 45 7.2 44 6.5 95 95 W 9 15 30.12 1020 10 16 N/A
5:55 am 05:55 Clear 44 6.7 43 6 95 95 W 9 15 30.18 1022 10 16 N/A
6:15 am 06:15 Clear 43 6.3 42 5.7 96 96 W 9 15 30.18 1022 10 16 N/A
6:35 am 06:35 Sunny 42 5.8 42 5.3 97 97 W 8 13 30.18 1022 10 16 N/A
6:55 am 06:55 Sunny 43 6.1 42 5.6 97 97 W 8 13 30.18 1022 10 16 N/A
7:15 am 07:15 Sunny 45 7 43 6 93 93 WNW 8 13 30.18 1022 10 16 N/A
7:35 am 07:35 Sunny 46 7.5 44 6.4 93 93 WNW 8 13 30.15 1021 10 16 N/A
7:55 am 07:55 Sunny 49 9.5 47 8.2 92 92 NW 12 19 30.15 1021 10 16 N/A
8:15 am 08:15 Sunny 51 10.6 47 8.3 86 86 NW 13 20 30.12 1020 10 16 N/A
8:35 am 08:35 Sunny 53 11.5 48 8.8 84 84 NW 10 17 30.12 1020 10 16 N/A
8:55 am 08:55 Sunny 55 12.5 47 8.5 77 77 NW 12 19 30.12 1020 10 16 N/A
9:15 am 09:15 Sunny 57 13.8 48 9.1 73 73 NW 12 19 30.09 1019 10 16 N/A
9:35 am 09:35 Sunny 60 15.4 49 9.2 67 67 NW 12 19 30.09 1019 10 16 N/A
9:55 am 09:55 Sunny 62 16.7 48 8.9 60 60 NW 10 17 30.09 1019 10 16 N/A
10:15 am 10:15 Sunny 64 17.5 47 8.5 56 56 NNW 12 19 30.06 1018 10 16 N/A
10:35 am 10:35 Sunny 65 18.2 48 9 55 55 NNW 10 17 30.06 1018 10 16 N/A
10:55 am 10:55 Sunny 67 19.3 48 8.7 50 50 NW 8 13 30.06 1018 10 16 N/A
11:15 am 11:15 Sunny 68 19.9 48 8.8 49 49 NNW 7 11 30.09 1019 10 16 N/A
11:35 am 11:35 Sunny 69 20.6 47 8.2 45 45 NNW 9 15 30.09 1019 10 16 N/A
11:55 am 11:55 Sunny 71 21.4 43 6.2 37 37 N 9 15 30.06 1018 10 16 N/A
12:15 pm 12:15 Sunny 71 21.9 42 5.4 34 34 N 7 11 30.06 1018 10 16 N/A
12:35 pm 12:35 Sunny 72 22.2 39 3.9 30 30 NNW 7 11 30.06 1018 10 16 N/A
12:55 pm 12:55 Sunny 73 22.7 40 4.7 31 31 NNW 10 17 30.06 1018 10 16 N/A
1:15 pm 13:15 Sunny 73 23 39 4.1 29 29 NNW 10 17 30.06 1018 10 16 N/A
1:35 pm 13:35 Sunny 73 23 42 5.3 32 32 N N/A 30.03 1017 10 16 N/A
1:55 pm 13:55 Partly Cloudy 74 23.6 44 6.5 33 33 WNW 8 13 30.03 1017 10 16 N/A
2:15 pm 14:15 Sunny 75 23.7 42 5.7 31 31 N 9 15 30.03 1017 10 16 N/A
2:35 pm 14:35 Partly Cloudy 73 22.7 42 5.6 33 33 N N/A 30.03 1017 10 16 N/A
2:55 pm 14:55 Partly Cloudy 74 23.5 41 5.2 31 31 NW 9 15 30.03 1017 10 16 N/A
3:15 pm 15:15 Partly Cloudy 76 24.5 42 5.4 29 29 NW 6 9 30.00 1016 10 16 N/A
3:35 pm 15:35 Partly Cloudy 76 24.5 40 4.6 28 28 NNW 6 9 30.00 1016 10 16 N/A
3:55 pm 15:55 Sunny 76 24.4 40 4.5 28 28 NW 6 9 30.00 1016 10 16 N/A
4:15 pm 16:15 Partly Cloudy 75 24 39 4 27 27 WNW 7 11 30.03 1017 10 16 N/A
4:35 pm 16:35 Partly Cloudy 76 24.6 39 3.8 26 26 W 3 6 30.00 1016 10 16 N/A
4:55 pm 16:55 Partly Cloudy 76 24.2 38 3.3 26 26 N 6 9 30.03 1017 10 16 N/A
5:15 pm 17:15 Sunny 76 24.2 38 3.3 26 26 N 7 11 30.03 1017 10 16 N/A
5:35 pm 17:35 Partly Cloudy 75 23.7 37 2.9 26 26 N N/A 30.03 1017 10 16 N/A
5:55 pm 17:55 Sunny 76 24.7 38 3.6 25 25 NW 8 13 30.00 1016 10 16 N/A
6:15 pm 18:15 Sunny 76 24.4 38 3.2 25 25 WNW 7 11 30.00 1016 10 16 N/A
6:35 pm 18:35 Sunny 74 23.3 39 3.7 28 28 NNW 5 7 30.03 1017 10 16 N/A
6:55 pm 18:55 Partly Cloudy 75 24 38 3.5 26 26 NNW 7 11 30.03 1017 10 16 N/A
7:15 pm 19:15 Partly Cloudy 74 23.6 39 3.9 28 28 N N/A 30.03 1017 10 16 N/A
7:35 pm 19:35 Mostly Cloudy 75 23.8 38 3.2 26 26 N N/A 30.03 1017 10 16 N/A
7:55 pm 19:55 Partly Cloudy 74 23.4 38 3.3 27 27 N N/A 30.03 1017 10 16 N/A
8:15 pm 20:15 Partly Cloudy 72 22 39 3.7 30 30 N N/A 30.03 1017 10 16 N/A
8:35 pm 20:35 Sunny 70 21.1 38 3.6 32 32 N N/A 30.03 1017 10 16 N/A
8:55 pm 20:55 Clear 69 20.8 38 3.5 32 32 N N/A 30.03 1017 10 16 N/A
9:15 pm 21:15 Partly Cloudy 64 17.7 39 3.9 40 40 N N/A 30.06 1018 10 16 N/A
9:35 pm 21:35 Mostly Cloudy 64 17.8 39 4.1 40 40 N N/A 30.06 1018 10 16 N/A
9:55 pm 21:55 Partly Cloudy 60 15.5 40 4.2 47 47 N N/A 30.09 1019 10 16 N/A
10:15 pm 22:15 Clear 58 14.7 39 3.7 48 48 N N/A 30.09 1019 10 16 N/A
10:35 pm 22:35 Clear 61 16.1 38 3.5 43 43 N N/A 30.09 1019 10 16 N/A
10:55 pm 22:55 Clear 56 13.2 38 3.5 52 52 N N/A 30.12 1020 10 16 N/A
11:15 pm 23:15 Clear 56 13.5 39 3.9 53 53 N N/A 30.12 1020 10 16 N/A
11:35 pm 23:35 Clear 58 14.4 38 3.2 47 47 N N/A 30.09 1019 10 16 N/A
11:55 pm 23:55 Clear 55 13 39 3.8 54 54 N N/A 30.12 1020 10 16 N/A

Powered by AerisWeather